Погода в Афьонкарахисаре

Турция     38°45′15″N   30°33′52″E
темп.,
°C
ветер,
м/с
пор.,
м/с
влажн.,
%
обл.,
%
осадки,
мм/ч
давл.,
гПа
погр.,
м
19 апреля, пн
пн1900:00+12ю2268100 0.0 101912
03:00+12ююв2271100 0.0 101719
06:00+11ю2275100 0.0 101712
09:00+13вюв3469100 0.1 1016327
12:00+19зюз5942100 0.0 10131537
15:00+22ююз7172897 0.0 10083094
18:00+17зюз61253100 0.1 10091576
21:00+14зсз4666100 0.4 1009223
20 апреля, вт
вт2000:00+11з387878 0.0 1010554
03:00+9зюз248121 0.0 1009110
06:00+7з34852 0.0 101074
09:00+11зюз58420 0.0 10111169
12:00+14зюз812241 0.0 10112083
15:00+15зюз912240 0.0 10102254
18:00+13з793623 0.0 10112120
21:00+8зсз48550 0.0 1014207
21 апреля, ср
ср2100:00+6зюз226723 0.0 101632
03:00+4юз226434 0.0 101821
06:00+3зюз22605 0.0 101914
09:00+7зсз11442 0.0 1019530
12:00+12з23270 0.0 10171595
15:00+15з4522100 0.0 10162530
18:00+13з5529100 0.0 10161664
21:00+10з3441100 0.0 101876
22 апреля, чт
чт2200:00+7сз22510 0.0 102016
03:00+6зсз22666 0.0 102012
06:00+5зсз11755 0.0 102110
09:00+8с115884 0.0 1020383
12:00+12с1236100 0.0 10201610
15:00+16с33274 0.0 10182505
18:00+16с332734 0.0 10171839
21:00+11сз113921 0.0 101910
23 апреля, пт
пт2300:00+9зсз114594 0.0 102010
03:00+8юз115021 0.0 101910
06:00+7зюз115128 0.0 101910
09:00+12юв2242100 0.0 1018368
12:00+17юз3525100 0.0 10171704
15:00+19зюз8925100 0.0 10152160
18:00+16зюз7113997 0.0 10161727
21:00+12з3754100 0.0 1018195